[Date Prev][Date Next][Thread Prev][Thread Next] - [Date Index][Thread Index][Author Index]
2 Line ISS Keps 6-3
- Subject: [sarex] 2 Line ISS Keps 6-3
- From: "Dave Larsen PhD" <doc@xxxxxxxxxxx>
- Date: Thu, 3 Jun 2004 04:08:44 -0700
ISS
1 25544U 98067A 04155.37504630 .00011787 00000-0 10628-3 0 9177
2 25544 51.6343 36.1403 0005710 185.5232 154.5898 15.68657538316149
----
Via the sarex mailing list at AMSAT.ORG courtesy of AMSAT-NA.
To unsubscribe, send "unsubscribe sarex" to Majordomo@amsat.org
AMSAT Home